,,,PA_Meas_PMT16A,,PR_Meas_QMR101_102,,RH_Meas_QMH101,,SR_Meas_QMS101,,TA_Meas_QMH101,,GenWind,,GenWind,
date,time,status,PA,status,PR,status,RH,status,SR,status,TA,status,DirAvg,status,SpdAvg,
2008-08-01, 00:00:04,VALID,1010.23,VALID,0,VALID,96.1379,VALID,0,VALID,22.8368,VALID,15,VALID,0.316797,
2008-08-01, 00:01:04,VALID,1010.21,VALID,0,VALID,96.1608,VALID,0,VALID,22.8173,VALID,17,VALID,0.404687,
2008-08-01, 00:02:04,VALID,1010.19,VALID,0,VALID,96.1379,VALID,0,VALID,22.7978,VALID,30,VALID,0.5125,
2008-08-01, 00:03:04,VALID,1010.15,VALID,0,VALID,96.1379,VALID,0,VALID,22.7588,VALID,30,VALID,0.379687,
2008-08-01, 00:04:04,VALID,1010.16,VALID,0,VALID,96.1379,VALID,0,VALID,22.7606,VALID,30,VALID,0.280469,
2008-08-01, 00:05:04,VALID,1010.13,VALID,0,VALID,96.1608,VALID,0,VALID,22.7394,VALID,30,VALID,0.394922,
2008-08-01, 00:06:04,VALID,1010.16,VALID,0,VALID,96.176,VALID,0,VALID,22.7199,VALID,30,VALID,0.392578,
2008-08-01, 00:07:04,VALID,1010.15,VALID,0,VALID,96.1608,VALID,0,VALID,22.7199,VALID,30,VALID,0.384375,
2008-08-01, 00:08:04,VALID,1010.14,VALID,0,VALID,96.1836,VALID,0,VALID,22.7199,VALID,30,VALID,0.277344,
2008-08-01, 00:09:04,VALID,1010.11,VALID,0,VALID,96.1608,VALID,0,VALID,22.7199,VALID,30,VALID,0.360547,
2008-08-01, 00:10:04,VALID,1010.08,VALID,0,VALID,96.1989,VALID,0,VALID,22.6809,VALID,30,VALID,0.191797,
2008-08-01, 00:11:04,VALID,1010.07,VALID,0,VALID,96.1913,VALID,0,VALID,22.7004,VALID,345,VALID,0.251563,
2008-08-01, 00:12:04,VALID,1010.05,VALID,0,VALID,96.176,VALID,0,VALID,22.7199,VALID,348,VALID,0.4625,
2008-08-01, 00:13:04,VALID,1010.04,VALID,0,VALID,96.176,VALID,0,VALID,22.7004,VALID,352,VALID,0.429297,
2008-08-01, 00:14:04,VALID,1010.04,VALID,0,VALID,96.1913,VALID,0,VALID,22.7199,VALID,352,VALID,0.16875,
2008-08-01, 00:15:04,VALID,1010.01,VALID,0,VALID,96.1913,VALID,0,VALID,22.7199,VALID,352,VALID,0.199609,
2008-08-01, 00:16:04,VALID,1010.05,VALID,0,VALID,96.1684,VALID,0,VALID,22.7004,VALID,352,VALID,0,
2008-08-01, 00:17:04,VALID,1010.04,VALID,0,VALID,96.1836,VALID,0,VALID,22.7004,VALID,352,VALID,0,
2008-08-01, 00:18:04,VALID,1010.01,VALID,0,VALID,96.1836,VALID,0,VALID,22.7004,VALID,352,VALID,0.0140625,
2008-08-01, 00:19:04,VALID,1010,VALID,0,VALID,96.176,VALID,0,VALID,22.6809,VALID,352,VALID,0.317578,
2008-08-01, 00:20:04,VALID,1010,VALID,0,VALID,96.1836,VALID,0,VALID,22.6809,VALID,352,VALID,0.0910156,
2008-08-01, 00:21:04,VALID,1010.01,VALID,0,VALID,96.1684,VALID,0,VALID,22.642,VALID,352,VALID,0,
2008-08-01, 00:22:04,VALID,1010.01,VALID,0,VALID,96.176,VALID,0,VALID,22.642,VALID,352,VALID,0.0964844,
2008-08-01, 00:23:04,VALID,1009.98,VALID,0,VALID,96.176,VALID,0,VALID,22.6437,VALID,352,VALID,0.323047,
2008-08-01, 00:24:04,VALID,1009.94,VALID,0,VALID,96.176,VALID,0,VALID,22.603,VALID,355,VALID,0.251172,
2008-08-01, 00:25:04,VALID,1009.93,VALID,0,VALID,96.1684,VALID,0,VALID,22.6242,VALID,355,VALID,0.10625,
2008-08-01, 00:26:04,VALID,1009.91,VALID,0,VALID,96.1913,VALID,0,VALID,22.6047,VALID,10,VALID,0.335156,
2008-08-01, 00:27:04,VALID,1009.89,VALID,0,VALID,96.1913,VALID,0,VALID,22.5835,VALID,10,VALID,0.142188,
2008-08-01, 00:28:04,VALID,1009.92,VALID,0,VALID,96.1913,VALID,0,VALID,22.564,VALID,10,VALID,0.249219,
2008-08-01, 00:29:04,VALID,1009.9,VALID,0,VALID,96.1836,VALID,0,VALID,22.5446,VALID,10,VALID,0.336719,
2008-08-01, 00:30:04,VALID,1009.9,VALID,0,VALID,96.1913,VALID,0,VALID,22.564,VALID,10,VALID,0.166016,
2008-08-01, 00:31:04,VALID,1009.89,VALID,0,VALID,96.2141,VALID,0,VALID,22.5658,VALID,10,VALID,0.065625,
2008-08-01, 00:32:04,VALID,1009.87,VALID,0,VALID,96.2141,VALID,0,VALID,22.5658,VALID,10,VALID,0.0523437,
2008-08-01, 00:33:04,VALID,1009.86,VALID,0,VALID,96.2141,VALID,0,VALID,22.5446,VALID,10,VALID,0.108984,
2008-08-01, 00:34:04,VALID,1009.83,VALID,0,VALID,96.1989,VALID,0,VALID,22.5658,VALID,9,VALID,0.230469,
2008-08-01, 00:35:04,VALID,1009.81,VALID,0,VALID,96.2218,VALID,0,VALID,22.5446,VALID,9,VALID,0.178516,
2008-08-01, 00:36:04,VALID,1009.8,VALID,0,VALID,96.1913,VALID,0,VALID,22.5251,VALID,9,VALID,0,
2008-08-01, 00:37:04,VALID,1009.75,VALID,0,VALID,96.1989,VALID,0,VALID,22.5251,VALID,9,VALID,0,
2008-08-01, 00:38:04,VALID,1009.75,VALID,0,VALID,96.2218,VALID,0,VALID,22.5463,VALID,9,VALID,0.261719,
2008-08-01, 00:39:04,VALID,1009.73,VALID,0,VALID,96.2141,VALID,0,VALID,22.5056,VALID,9,VALID,0.266797,
2008-08-01, 00:40:04,VALID,1009.72,VALID,0,VALID,96.2141,VALID,0,VALID,22.4878,VALID,9,VALID,0.297656,
2008-08-01, 00:41:04,VALID,1009.74,VALID,0,VALID,96.2065,VALID,0,VALID,22.4667,VALID,9,VALID,0.211719,
2008-08-01, 00:42:04,VALID,1009.73,VALID,0,VALID,96.237,VALID,0,VALID,22.5073,VALID,9,VALID,0.284766,
2008-08-01, 00:43:04,VALID,1009.72,VALID,0,VALID,96.2218,VALID,0,VALID,22.4861,VALID,9,VALID,0.374219,
2008-08-01, 00:44:04,VALID,1009.7,VALID,0,VALID,96.2065,VALID,0,VALID,22.5073,VALID,41,VALID,0.4125,
2008-08-01, 00:45:04,VALID,1009.7,VALID,0,VALID,96.237,VALID,0.105969,VALID,22.4844,VALID,53,VALID,0.326562,
2008-08-01, 00:46:04,VALID,1009.68,VALID,0,VALID,96.2218,VALID,0,VALID,22.4861,VALID,53,VALID,0.247266,
2008-08-01, 00:47:04,VALID,1009.65,VALID,0,VALID,96.2141,VALID,0.105969,VALID,22.465,VALID,53,VALID,0,
2008-08-01, 00:48:04,VALID,1009.62,VALID,0,VALID,96.2141,VALID,0.105969,VALID,22.4861,VALID,53,VALID,0.00117188,
2008-08-01, 00:49:04,VALID,1009.61,VALID,0,VALID,96.2446,VALID,0.105969,VALID,22.4455,VALID,53,VALID,0,
2008-08-01, 00:50:04,VALID,1009.59,VALID,0,VALID,96.2218,VALID,0.105969,VALID,22.4861,VALID,53,VALID,0,
2008-08-01, 00:51:04,VALID,1009.59,VALID,0,VALID,96.2523,VALID,0,VALID,22.4861,VALID,53,VALID,0,
2008-08-01, 00:52:04,VALID,1009.58,VALID,0,VALID,96.2218,VALID,0,VALID,22.4844,VALID,53,VALID,0,
2008-08-01, 00:53:04,VALID,1009.59,VALID,0,VALID,96.237,VALID,0.105969,VALID,22.4861,VALID,53,VALID,0,
2008-08-01, 00:54:04,VALID,1009.57,VALID,0,VALID,96.237,VALID,0.105969,VALID,22.465,VALID,53,VALID,0,
2008-08-01, 00:55:04,VALID,1009.59,VALID,0,VALID,96.237,VALID,0,VALID,22.465,VALID,53,VALID,0,
2008-08-01, 00:56:04,VALID,1009.59,VALID,0,VALID,96.2294,VALID,0.105969,VALID,22.4844,VALID,53,VALID,0,
2008-08-01, 00:57:04,VALID,1009.63,VALID,0,VALID,96.237,VALID,0.105969,VALID,22.4844,VALID,53,VALID,0,
2008-08-01, 00:58:04,VALID,1009.63,VALID,0,VALID,96.2523,VALID,0.105969,VALID,22.465,VALID,53,VALID,0,
2008-08-01, 00:59:04,VALID,1009.58,VALID,0,VALID,96.2523,VALID,0.105969,VALID,22.4844,VALID,53,VALID,0,
2008-08-01, 01:00:04,VALID,1009.57,VALID,0,VALID,96.2294,VALID,0,VALID,22.4861,VALID,53,VALID,0,
2008-08-01, 01:01:04,VALID,1009.57,VALID,0,VALID,96.2294,VALID,0.105969,VALID,22.4455,VALID,53,VALID,0,
2008-08-01, 01:02:04,VALID,1009.55,VALID,0,VALID,96.2294,VALID,0.105969,VALID,22.4455,VALID,53,VALID,0,
2008-08-01, 01:03:04,VALID,1009.55,VALID,0,VALID,96.2446,VALID,0.105969,VALID,22.4455,VALID,53,VALID,0,
2008-08-01, 01:04:04,VALID,1009.56,VALID,0,VALID,96.2218,VALID,0.105969,VALID,22.4455,VALID,53,VALID,0,
2008-08-01, 01:05:04,VALID,1009.55,VALID,0,VALID,96.2294,VALID,0.105969,VALID,22.4472,VALID,53,VALID,0,
2008-08-01, 01:06:04,VALID,1009.52,VALID,0,VALID,96.2294,VALID,0.105969,VALID,22.4065,VALID,53,VALID,0,
2008-08-01, 01:07:04,VALID,1009.49,VALID,0,VALID,96.237,VALID,0.105969,VALID,22.4065,VALID,53,VALID,0.167969,
2008-08-01, 01:08:04,VALID,1009.48,VALID,0,VALID,96.2294,VALID,0.105969,VALID,22.4277,VALID,53,VALID,0.0277344,
2008-08-01, 01:09:04,VALID,1009.48,VALID,0,VALID,96.2294,VALID,0.105969,VALID,22.387,VALID,53,VALID,0.0375,
2008-08-01, 01:10:04,VALID,1009.48,VALID,0,VALID,96.2446,VALID,0,VALID,22.4277,VALID,53,VALID,0.145703,
2008-08-01, 01:11:04,VALID,1009.48,VALID,0,VALID,96.2828,VALID,0.105969,VALID,22.4472,VALID,53,VALID,0.173828,
2008-08-01, 01:12:04,VALID,1009.46,VALID,0,VALID,96.2675,VALID,0.105969,VALID,22.4667,VALID,53,VALID,0.130078,
2008-08-01, 01:13:04,VALID,1009.46,VALID,0,VALID,96.2675,VALID,0.105969,VALID,22.426,VALID,52,VALID,0.339453,
2008-08-01, 01:14:04,VALID,1009.46,VALID,0,VALID,96.2523,VALID,0,VALID,22.4065,VALID,17,VALID,0.496094,
2008-08-01, 01:15:04,VALID,1009.45,VALID,0,VALID,96.237,VALID,0,VALID,22.3887,VALID,17,VALID,0.464844,
2008-08-01, 01:16:04,VALID,1009.43,VALID,0,VALID,96.2218,VALID,0,VALID,22.371,VALID,17,VALID,0.307813,
2008-08-01, 01:17:04,VALID,1009.42,VALID,0,VALID,96.2523,VALID,0,VALID,22.3303,VALID,17,VALID,0.133594,
2008-08-01, 01:18:04,VALID,1009.41,VALID,0,VALID,96.2751,VALID,0,VALID,22.3108,VALID,17,VALID,0.185547,
2008-08-01, 01:19:04,VALID,1009.4,VALID,0,VALID,96.2523,VALID,0,VALID,22.3303,VALID,17,VALID,0.162891,
2008-08-01, 01:20:04,VALID,1009.4,VALID,0,VALID,96.2523,VALID,0,VALID,22.3303,VALID,17,VALID,0.108984,
2008-08-01, 01:21:04,VALID,1009.37,VALID,0,VALID,96.2523,VALID,0,VALID,22.3515,VALID,17,VALID,0.110547,
2008-08-01, 01:22:04,VALID,1009.37,VALID,0,VALID,96.2675,VALID,0,VALID,22.3303,VALID,17,VALID,0,
2008-08-01, 01:23:04,VALID,1009.29,VALID,0,VALID,96.2599,VALID,0,VALID,22.3108,VALID,17,VALID,0.0625,
2008-08-01, 01:24:04,VALID,1009.25,VALID,0,VALID,96.2751,VALID,0,VALID,22.3303,VALID,17,VALID,0.206641,
2008-08-01, 01:25:04,VALID,1009.27,VALID,0,VALID,96.2751,VALID,0,VALID,22.3303,VALID,17,VALID,0.187109,
2008-08-01, 01:26:04,VALID,1009.26,VALID,0,VALID,96.2675,VALID,0,VALID,22.3303,VALID,26,VALID,0.192578,
2008-08-01, 01:27:04,VALID,1009.24,VALID,0,VALID,96.2675,VALID,0,VALID,22.3303,VALID,26,VALID,0.207031,
2008-08-01, 01:28:04,VALID,1009.21,VALID,0,VALID,96.2675,VALID,0,VALID,22.3108,VALID,26,VALID,0,
2008-08-01, 01:29:04,VALID,1009.19,VALID,0,VALID,96.2828,VALID,0,VALID,22.2914,VALID,26,VALID,0.0253906,
2008-08-01, 01:30:04,VALID,1009.19,VALID,0,VALID,96.2675,VALID,0.105969,VALID,22.2897,VALID,26,VALID,0.00195313,
2008-08-01, 01:31:04,VALID,1009.15,VALID,0,VALID,96.2599,VALID,0.105969,VALID,22.2897,VALID,26,VALID,0,
2008-08-01, 01:32:04,VALID,1009.14,VALID,0,VALID,96.2599,VALID,0.105969,VALID,22.2914,VALID,26,VALID,0,
2008-08-01, 01:33:04,VALID,1009.11,VALID,0,VALID,96.2828,VALID,0,VALID,22.2719,VALID,26,VALID,0,
2008-08-01, 01:34:04,VALID,1009.06,VALID,0,VALID,96.2675,VALID,0,VALID,22.2719,VALID,26,VALID,0,
2008-08-01, 01:35:04,VALID,1009.1,VALID,0,VALID,96.2675,VALID,0,VALID,22.2719,VALID,26,VALID,0,
2008-08-01, 01:36:04,VALID,1009.1,VALID,0,VALID,96.2828,VALID,0,VALID,22.2719,VALID,26,VALID,0,
2008-08-01, 01:37:04,VALID,1009.05,VALID,0,VALID,96.2751,VALID,0,VALID,22.2719,VALID,26,VALID,0,
2008-08-01, 01:38:04,VALID,1009.03,VALID,0,VALID,96.2751,VALID,0,VALID,22.2914,VALID,26,VALID,0.155078,
2008-08-01, 01:39:04,VALID,1009.05,VALID,0,VALID,96.2828,VALID,0,VALID,22.2719,VALID,26,VALID,0.288672,
2008-08-01, 01:40:04,VALID,1009.03,VALID,0,VALID,96.2828,VALID,0,VALID,22.2719,VALID,26,VALID,0.189844,
2008-08-01, 01:41:04,VALID,1009.04,VALID,0,VALID,96.2828,VALID,0,VALID,22.2719,VALID,26,VALID,0.0839844,
2008-08-01, 01:42:04,VALID,1009.06,VALID,0,VALID,96.2599,VALID,0,VALID,22.2719,VALID,26,VALID,0.189844,
2008-08-01, 01:43:04,VALID,1009.08,VALID,0,VALID,96.2751,VALID,0,VALID,22.293,VALID,26,VALID,0.151562,
2008-08-01, 01:44:04,VALID,1009.07,VALID,0,VALID,96.2904,VALID,0,VALID,22.2524,VALID,26,VALID,0.311719,
2008-08-01, 01:45:04,VALID,1009.04,VALID,0,VALID,96.2904,VALID,0,VALID,22.2719,VALID,26,VALID,0.163281,
2008-08-01, 01:46:04,VALID,1009.03,VALID,0,VALID,96.2828,VALID,0,VALID,22.2524,VALID,26,VALID,0.114063,
2008-08-01, 01:47:04,VALID,1009.04,VALID,0,VALID,96.2675,VALID,0,VALID,22.2524,VALID,26,VALID,0.0128906,
2008-08-01, 01:48:04,VALID,1009.01,VALID,0,VALID,96.2828,VALID,0,VALID,22.2329,VALID,26,VALID,0.0890625,
2008-08-01, 01:49:04,VALID,1009,VALID,0,VALID,96.2599,VALID,0,VALID,22.2134,VALID,26,VALID,0,
2008-08-01, 01:50:04,VALID,1008.98,VALID,0,VALID,96.2904,VALID,0,VALID,22.2134,VALID,26,VALID,0,
2008-08-01, 01:51:04,VALID,1008.96,VALID,0,VALID,96.2904,VALID,0,VALID,22.2134,VALID,26,VALID,0,
2008-08-01, 01:52:04,VALID,1008.95,VALID,0,VALID,96.2828,VALID,0,VALID,22.1728,VALID,26,VALID,0,
2008-08-01, 01:53:04,VALID,1008.94,VALID,0,VALID,96.2904,VALID,0,VALID,22.1745,VALID,26,VALID,0,
2008-08-01, 01:54:04,VALID,1008.93,VALID,0,VALID,96.2904,VALID,0,VALID,22.155,VALID,26,VALID,0,
2008-08-01, 01:55:04,VALID,1008.91,VALID,0,VALID,96.2828,VALID,0,VALID,22.1567,VALID,26,VALID,0,
2008-08-01, 01:56:04,VALID,1008.89,VALID,0,VALID,96.298,VALID,0,VALID,22.1355,VALID,26,VALID,0,
2008-08-01, 01:57:04,VALID,1008.88,VALID,0,VALID,96.3056,VALID,0,VALID,22.1355,VALID,26,VALID,0.140625,
2008-08-01, 01:58:04,VALID,1008.88,VALID,0,VALID,96.298,VALID,0,VALID,22.1372,VALID,26,VALID,0.126172,
2008-08-01, 01:59:04,VALID,1008.88,VALID,0,VALID,96.3056,VALID,0,VALID,22.1355,VALID,26,VALID,0.165234,
2008-08-01, 02:00:04,VALID,1008.86,VALID,0,VALID,96.3056,VALID,0,VALID,22.1355,VALID,26,VALID,0.0105469,
2008-08-01, 02:01:04,VALID,1008.82,VALID,0,VALID,96.298,VALID,0,VALID,22.1567,VALID,26,VALID,0,
2008-08-01, 02:02:04,VALID,1008.84,VALID,0,VALID,96.3133,VALID,0,VALID,22.1355,VALID,26,VALID,0.323047,
2008-08-01, 02:03:04,VALID,1008.81,VALID,0,VALID,96.2828,VALID,0,VALID,22.0966,VALID,26,VALID,0.287109,
2008-08-01, 02:04:04,VALID,1008.81,VALID,0,VALID,96.3285,VALID,0,VALID,22.0771,VALID,26,VALID,0.345703,
2008-08-01, 02:05:04,VALID,1008.79,VALID,0,VALID,96.3209,VALID,0,VALID,22.0771,VALID,26,VALID,0.261328,
2008-08-01, 02:06:04,VALID,1008.75,VALID,0,VALID,96.3133,VALID,0,VALID,22.0576,VALID,64,VALID,0.348828,
2008-08-01, 02:07:04,VALID,1008.72,VALID,0,VALID,96.3133,VALID,0,VALID,22.0771,VALID,64,VALID,0.160547,
2008-08-01, 02:08:04,VALID,1008.71,VALID,0,VALID,96.3209,VALID,0,VALID,22.0771,VALID,63,VALID,0.198047,
2008-08-01, 02:09:04,VALID,1008.72,VALID,0,VALID,96.3133,VALID,0,VALID,22.0983,VALID,350,VALID,0.487891,
2008-08-01, 02:10:04,VALID,1008.75,VALID,0,VALID,96.3133,VALID,0,VALID,22.0788,VALID,348,VALID,0.533594,
2008-08-01, 02:11:04,VALID,1008.75,VALID,0,VALID,96.3133,VALID,0,VALID,22.0983,VALID,350,VALID,0.289844,
2008-08-01, 02:12:04,VALID,1008.76,VALID,0,VALID,96.3209,VALID,0,VALID,22.0771,VALID,353,VALID,0,
2008-08-01, 02:13:04,VALID,1008.76,VALID,0,VALID,96.3361,VALID,0,VALID,22.0771,VALID,353,VALID,0.0578125,
2008-08-01, 02:14:04,VALID,1008.72,VALID,0,VALID,96.3209,VALID,0,VALID,22.0576,VALID,354,VALID,0.139453,
2008-08-01, 02:15:04,VALID,1008.69,VALID,0,VALID,96.3133,VALID,0,VALID,22.0576,VALID,354,VALID,0.209766,
2008-08-01, 02:16:04,VALID,1008.67,VALID,0,VALID,96.3209,VALID,0,VALID,22.0593,VALID,354,VALID,0,
2008-08-01, 02:17:04,VALID,1008.63,VALID,0,VALID,96.3285,VALID,0,VALID,22.0576,VALID,354,VALID,0.242578,
2008-08-01, 02:18:04,VALID,1008.6,VALID,0,VALID,96.3056,VALID,0,VALID,22.0576,VALID,51,VALID,0.322656,
2008-08-01, 02:19:04,VALID,1008.58,VALID,0,VALID,96.3209,VALID,0,VALID,22.0593,VALID,71,VALID,0.569922,
2008-08-01, 02:20:04,VALID,1008.55,VALID,0,VALID,96.3209,VALID,0,VALID,22.0576,VALID,73,VALID,0.448828,
2008-08-01, 02:21:04,VALID,1008.49,VALID,0,VALID,96.3361,VALID,0,VALID,22.0382,VALID,72,VALID,0.301562,
2008-08-01, 02:22:04,VALID,1008.47,VALID,0,VALID,96.3133,VALID,0,VALID,21.9992,VALID,65,VALID,0.342578,
2008-08-01, 02:23:04,VALID,1008.46,VALID,0,VALID,96.298,VALID,0,VALID,22.0009,VALID,41,VALID,0.386328,
2008-08-01, 02:24:05,VALID,1008.45,VALID,0,VALID,96.3056,VALID,0,VALID,22.0204,VALID,28,VALID,0.114063,
2008-08-01, 02:25:05,VALID,1008.44,VALID,0,VALID,96.3285,VALID,0,VALID,22.0204,VALID,26,VALID,0.146094,
2008-08-01, 02:26:04,VALID,1008.44,VALID,0,VALID,96.3438,VALID,0,VALID,22.0187,VALID,8,VALID,0,
2008-08-01, 02:27:05,VALID,1008.44,VALID,0,VALID,96.3209,VALID,0,VALID,21.9992,VALID,8,VALID,0,
2008-08-01, 02:28:05,VALID,1008.42,VALID,0,VALID,96.3514,VALID,0,VALID,21.9992,VALID,8,VALID,0,
2008-08-01, 02:29:05,VALID,1008.41,VALID,0,VALID,96.3361,VALID,0,VALID,21.9797,VALID,8,VALID,0,
2008-08-01, 02:30:05,VALID,1008.42,VALID,0,VALID,96.3361,VALID,0,VALID,21.9992,VALID,8,VALID,0.114844,
2008-08-01, 02:31:05,VALID,1008.38,VALID,0,VALID,96.3361,VALID,0,VALID,21.9992,VALID,42,VALID,0.25625,
2008-08-01, 02:32:05,VALID,1008.4,VALID,0,VALID,96.3438,VALID,0,VALID,21.9992,VALID,42,VALID,0.0929687,
2008-08-01, 02:33:05,VALID,1008.37,VALID,0,VALID,96.3133,VALID,0,VALID,21.9797,VALID,42,VALID,0,
2008-08-01, 02:34:05,VALID,1008.36,VALID,0,VALID,96.3285,VALID,0,VALID,21.9992,VALID,43,VALID,0.247656,
2008-08-01, 02:35:05,VALID,1008.34,VALID,0,VALID,96.3285,VALID,0,VALID,21.9992,VALID,43,VALID,0.0304688,
2008-08-01, 02:36:05,VALID,1008.33,VALID,0,VALID,96.3209,VALID,0,VALID,21.9992,VALID,43,VALID,0.0566406,
2008-08-01, 02:37:05,VALID,1008.33,VALID,0,VALID,96.3285,VALID,0,VALID,21.9797,VALID,43,VALID,0.181641,
2008-08-01, 02:38:05,VALID,1008.36,VALID,0,VALID,96.3438,VALID,0,VALID,21.9814,VALID,44,VALID,0.414063,
2008-08-01, 02:39:05,VALID,1008.34,VALID,0,VALID,96.3361,VALID,0,VALID,21.9797,VALID,49,VALID,0.476953,
2008-08-01, 02:40:05,VALID,1008.32,VALID,0,VALID,96.3285,VALID,0,VALID,21.9603,VALID,50,VALID,0.24375,
2008-08-01, 02:41:05,VALID,1008.31,VALID,0,VALID,96.3285,VALID,0,VALID,21.9797,VALID,50,VALID,0.169141,
2008-08-01, 02:42:05,VALID,1008.3,VALID,0,VALID,96.3438,VALID,0,VALID,21.9603,VALID,50,VALID,0.0863281,
2008-08-01, 02:43:05,VALID,1008.31,VALID,0,VALID,96.3438,VALID,0,VALID,21.9603,VALID,50,VALID,0,
2008-08-01, 02:44:05,VALID,1008.33,VALID,0,VALID,96.3285,VALID,0,VALID,21.9408,VALID,50,VALID,0,
2008-08-01, 02:45:05,VALID,1008.35,VALID,0,VALID,96.3438,VALID,0,VALID,21.9603,VALID,50,VALID,0,
2008-08-01, 02:46:05,VALID,1008.38,VALID,0,VALID,96.3361,VALID,0,VALID,21.9603,VALID,50,VALID,0,
2008-08-01, 02:47:05,VALID,1008.34,VALID,0,VALID,96.3438,VALID,0,VALID,21.9196,VALID,50,VALID,0,
2008-08-01, 02:48:05,VALID,1008.39,VALID,0,VALID,96.359,VALID,0,VALID,21.9213,VALID,50,VALID,0,
2008-08-01, 02:49:05,VALID,1008.39,VALID,0,VALID,96.3361,VALID,0,VALID,21.9797,VALID,50,VALID,0,
2008-08-01, 02:50:05,VALID,1008.38,VALID,0,VALID,96.3514,VALID,0,VALID,21.9797,VALID,50,VALID,0,
2008-08-01, 02:51:05,VALID,1008.38,VALID,0,VALID,96.3438,VALID,0,VALID,22.0204,VALID,50,VALID,0,
2008-08-01, 02:52:05,VALID,1008.35,VALID,0,VALID,96.3361,VALID,0,VALID,21.9797,VALID,50,VALID,0,
2008-08-01, 02:53:05,VALID,1008.34,VALID,0,VALID,96.3666,VALID,0,VALID,21.9797,VALID,50,VALID,0,
2008-08-01, 02:54:05,VALID,1008.3,VALID,0,VALID,96.3514,VALID,0,VALID,21.9992,VALID,50,VALID,0,
2008-08-01, 02:55:05,VALID,1008.32,VALID,0,VALID,96.3514,VALID,0,VALID,22.0187,VALID,50,VALID,0,
2008-08-01, 02:56:05,VALID,1008.3,VALID,0,VALID,96.3514,VALID,0,VALID,22.0187,VALID,50,VALID,0.0394531,
2008-08-01, 02:57:05,VALID,1008.28,VALID,0,VALID,96.3285,VALID,0,VALID,22.0382,VALID,50,VALID,0,
2008-08-01, 02:58:05,VALID,1008.31,VALID,0,VALID,96.3514,VALID,0,VALID,21.9992,VALID,50,VALID,0,
2008-08-01, 02:59:05,VALID,1008.31,VALID,0,VALID,96.359,VALID,0,VALID,22.0187,VALID,50,VALID,0,
2008-08-01, 03:00:05,VALID,1008.3,VALID,0,VALID,96.3361,VALID,0,VALID,21.9992,VALID,50,VALID,0.142188,
2008-08-01, 03:01:05,VALID,1008.31,VALID,0,VALID,96.3514,VALID,0,VALID,22.0576,VALID,158,VALID,0.528125,
2008-08-01, 03:02:05,VALID,1008.29,VALID,0,VALID,96.3438,VALID,0,VALID,22.0576,VALID,158,VALID,0.491406,
2008-08-01, 03:03:05,VALID,1008.35,VALID,0,VALID,96.3209,VALID,0,VALID,22.0576,VALID,174,VALID,0.56875,
2008-08-01, 03:04:05,VALID,1008.33,VALID,0,VALID,96.3361,VALID,0,VALID,22.0382,VALID,194,VALID,0.315234,
2008-08-01, 03:05:05,VALID,1008.35,VALID,0,VALID,96.3361,VALID,0,VALID,22.0187,VALID,194,VALID,0.04375,
2008-08-01, 03:06:05,VALID,1008.33,VALID,0,VALID,96.3361,VALID,0,VALID,22.0187,VALID,194,VALID,0,
2008-08-01, 03:07:05,VALID,1008.36,VALID,0,VALID,96.3209,VALID,0,VALID,22.0187,VALID,194,VALID,0,
2008-08-01, 03:08:05,VALID,1008.34,VALID,0,VALID,96.3285,VALID,0,VALID,21.9992,VALID,194,VALID,0,
2008-08-01, 03:09:05,VALID,1008.35,VALID,0,VALID,96.3438,VALID,0,VALID,21.9992,VALID,194,VALID,0,
2008-08-01, 03:10:05,VALID,1008.35,VALID,0,VALID,96.3209,VALID,0,VALID,21.9992,VALID,194,VALID,0,
2008-08-01, 03:11:05,VALID,1008.36,VALID,0,VALID,96.3361,VALID,0,VALID,21.9992,VALID,194,VALID,0,
2008-08-01, 03:12:05,VALID,1008.35,VALID,0,VALID,96.3361,VALID,0,VALID,21.9797,VALID,194,VALID,0,
2008-08-01, 03:13:05,VALID,1008.35,VALID,0,VALID,96.3514,VALID,0,VALID,21.9992,VALID,194,VALID,0,
2008-08-01, 03:14:05,VALID,1008.35,VALID,0,VALID,96.359,VALID,0,VALID,21.9992,VALID,194,VALID,0,
2008-08-01, 03:15:05,VALID,1008.34,VALID,0,VALID,96.3438,VALID,0,VALID,22.0187,VALID,194,VALID,0,
2008-08-01, 03:16:05,VALID,1008.32,VALID,0,VALID,96.3666,VALID,0,VALID,22.0382,VALID,194,VALID,0.152734,
2008-08-01, 03:17:05,VALID,1008.33,VALID,0,VALID,96.3438,VALID,0,VALID,22.0593,VALID,194,VALID,0.244141,
2008-08-01, 03:18:05,VALID,1008.31,VALID,0,VALID,96.3361,VALID,0,VALID,22.0576,VALID,194,VALID,0.228125,
2008-08-01, 03:19:05,VALID,1008.35,VALID,0,VALID,96.3514,VALID,0,VALID,22.0576,VALID,194,VALID,0.247266,
2008-08-01, 03:20:05,VALID,1008.35,VALID,0,VALID,96.3361,VALID,0,VALID,22.0771,VALID,194,VALID,0.191797,
2008-08-01, 03:21:05,VALID,1008.36,VALID,0,VALID,96.3285,VALID,0,VALID,22.0576,VALID,194,VALID,0.300781,
2008-08-01, 03:22:05,VALID,1008.39,VALID,0,VALID,96.3438,VALID,0,VALID,22.0382,VALID,194,VALID,0.330859,
2008-08-01, 03:23:05,VALID,1008.42,VALID,0,VALID,96.3514,VALID,0,VALID,21.9992,VALID,194,VALID,0.240625,
2008-08-01, 03:24:05,VALID,1008.44,VALID,0,VALID,96.3514,VALID,0,VALID,21.9992,VALID,194,VALID,0.0839844,
2008-08-01, 03:25:05,VALID,1008.44,VALID,0,VALID,96.3514,VALID,0,VALID,22.0398,VALID,194,VALID,0.0046875,
2008-08-01, 03:26:05,VALID,1008.42,VALID,0,VALID,96.359,VALID,0,VALID,22.0187,VALID,194,VALID,0,
2008-08-01, 03:27:05,VALID,1008.44,VALID,0,VALID,96.3514,VALID,0,VALID,22.0382,VALID,194,VALID,0,
2008-08-01, 03:28:05,VALID,1008.47,VALID,0,VALID,96.3438,VALID,0,VALID,22.0593,VALID,194,VALID,0.26875,
2008-08-01, 03:29:05,VALID,1008.46,VALID,0,VALID,96.3438,VALID,0,VALID,22.0187,VALID,194,VALID,0.236328,
2008-08-01, 03:30:05,VALID,1008.43,VALID,0,VALID,96.3666,VALID,0,VALID,22.017,VALID,194,VALID,0.0605469,
2008-08-01, 03:31:05,VALID,1008.45,VALID,0,VALID,96.359,VALID,0,VALID,22.0382,VALID,194,VALID,0.268359,
2008-08-01, 03:32:05,VALID,1008.41,VALID,0,VALID,96.359,VALID,0,VALID,21.9992,VALID,194,VALID,0.391406,
2008-08-01, 03:33:05,VALID,1008.41,VALID,0,VALID,96.3285,VALID,0,VALID,21.9992,VALID,194,VALID,0.394531,
2008-08-01, 03:34:05,VALID,1008.42,VALID,0,VALID,96.3361,VALID,0,VALID,21.9992,VALID,194,VALID,0.409375,
2008-08-01, 03:35:05,VALID,1008.43,VALID,0,VALID,96.3438,VALID,0,VALID,21.9797,VALID,194,VALID,0.566797,
2008-08-01, 03:36:05,VALID,1008.41,VALID,0,VALID,96.359,VALID,0,VALID,21.9797,VALID,194,VALID,0.377344,
2008-08-01, 03:37:05,VALID,1008.43,VALID,0,VALID,96.3361,VALID,0,VALID,21.9408,VALID,39,VALID,0.533203,
2008-08-01, 03:38:05,VALID,1008.38,VALID,0,VALID,96.3285,VALID,0,VALID,21.8824,VALID,39,VALID,0.403906,
2008-08-01, 03:39:05,VALID,1008.37,VALID,0,VALID,96.3133,VALID,0,VALID,21.8629,VALID,39,VALID,0.371875,
2008-08-01, 03:40:05,VALID,1008.36,VALID,0,VALID,96.3438,VALID,0.105969,VALID,21.8434,VALID,39,VALID,0.245703,
2008-08-01, 03:41:05,VALID,1008.33,VALID,0,VALID,96.3361,VALID,0,VALID,21.8434,VALID,39,VALID,0.139453,
2008-08-01, 03:42:05,VALID,1008.33,VALID,0,VALID,96.359,VALID,0,VALID,21.8434,VALID,39,VALID,0,
2008-08-01, 03:43:05,VALID,1008.31,VALID,0,VALID,96.3743,VALID,0,VALID,21.8434,VALID,39,VALID,0.246875,
2008-08-01, 03:44:05,VALID,1008.3,VALID,0,VALID,96.3743,VALID,0,VALID,21.8223,VALID,39,VALID,0,
2008-08-01, 03:45:05,VALID,1008.29,VALID,0,VALID,96.3819,VALID,0,VALID,21.8629,VALID,38,VALID,0.0191406,
2008-08-01, 03:46:05,VALID,1008.31,VALID,0,VALID,96.3819,VALID,0,VALID,21.8629,VALID,39,VALID,0,
2008-08-01, 03:47:05,VALID,1008.31,VALID,0,VALID,96.3819,VALID,0,VALID,21.8807,VALID,39,VALID,0.104687,
2008-08-01, 03:48:05,VALID,1008.3,VALID,0,VALID,96.3819,VALID,0,VALID,21.9018,VALID,39,VALID,0,
2008-08-01, 03:49:05,VALID,1008.31,VALID,0,VALID,96.3895,VALID,0,VALID,21.9213,VALID,39,VALID,0.00117188,